When you browse on this site, cookies collect data to enhance your experience and personalize the content and advertising you see.
Visit our Privacy Policy to learn more. By continuing to use the site, you agree to this use of cookies and data.
  • Em Portugal
  • Lista de países
  • Para 7 dias
  • Temperatura da água
  • Mapa do tempo
  • Widgets de tempo
  • user-avatar
    Iniciar Sessão

    Previsão horária em Letowe

    Hoje, 20 Setembro, Sexta-feira

    Tempo Temperatura Precipitação Vento Pressão Humidade
    00:00 +3°C° 0 mm 2 m/s 721 mmHg 93%
    01:00 +3°C° 0 mm 2 m/s 721 mmHg 93%
    02:00 +3°C° 0 mm 2 m/s 721 mmHg 93%
    03:00 +3°C° 0 mm 2 m/s 721 mmHg 93%
    04:00 +2°C° 0 mm 2 m/s 721 mmHg 93%
    05:00 +3°C° 0 mm 2 m/s 721 mmHg 92%
    06:00 +4°C° 0 mm 2 m/s 721 mmHg 90%
    07:00 +5°C° 0 mm 2 m/s 722 mmHg 88%
    08:00 +6°C° 0.1 mm 2 m/s 722 mmHg 81%
    09:00 +8°C° 0.1 mm 3 m/s 722 mmHg 75%
    10:00 +10°C° 0.1 mm 3 m/s 722 mmHg 68%
    11:00 +10°C° 0.1 mm 4 m/s 722 mmHg 64%
    12:00 +11°C° 0.1 mm 4 m/s 722 mmHg 60%
    13:00 +11°C° 0.1 mm 4 m/s 722 mmHg 55%
    14:00 +11°C° 0.1 mm 4 m/s 721 mmHg 59%
    15:00 +11°C° 0.1 mm 3 m/s 721 mmHg 62%
    16:00 +10°C° 0.1 mm 3 m/s 721 mmHg 66%
    17:00 +9°C° 0 mm 2 m/s 721 mmHg 72%
    18:00 +7°C° 0 mm 2 m/s 721 mmHg 79%
    19:00 +7°C° 0 mm 1 m/s 721 mmHg 86%
    20:00 +6°C° 0 mm 1 m/s 721 mmHg 86%
    21:00 +6°C° 0 mm 1 m/s 721 mmHg 87%
    22:00 +6°C° 0 mm 1 m/s 721 mmHg 88%
    23:00 +6°C° 0 mm 1 m/s 721 mmHg 88%

    Amanhã, 21 Setembro, Sábado

    Tempo Temperatura Precipitação Vento Pressão Humidade
    00:00 +6°C° 0 mm 1 m/s 721 mmHg 89%
    01:00 +5°C° 0 mm 1 m/s 721 mmHg 89%
    02:00 +5°C° 0 mm 1 m/s 721 mmHg 89%
    03:00 +5°C° 0 mm 1 m/s 721 mmHg 89%
    04:00 +5°C° 0 mm 1 m/s 721 mmHg 89%
    05:00 +6°C° 0 mm 1 m/s 721 mmHg 86%
    06:00 +7°C° 0 mm 1 m/s 721 mmHg 83%
    07:00 +8°C° 0 mm 1 m/s 721 mmHg 79%
    08:00 +10°C° 0 mm 1 m/s 722 mmHg 70%
    09:00 +12°C° 0 mm 1 m/s 722 mmHg 61%
    10:00 +15°C° 0 mm 1 m/s 722 mmHg 52%
    11:00 +16°C° 0 mm 1 m/s 722 mmHg 51%
    12:00 +18°C° 0 mm 1 m/s 722 mmHg 49%
    13:00 +19°C° 0 mm 1 m/s 721 mmHg 48%
    14:00 +18°C° 0 mm 1 m/s 721 mmHg 51%
    15:00 +18°C° 0 mm 1 m/s 721 mmHg 55%
    16:00 +16°C° 0 mm 1 m/s 720 mmHg 59%
    17:00 +14°C° 0 mm 1 m/s 720 mmHg 67%
    18:00 +12°C° 0 mm 1 m/s 720 mmHg 74%
    19:00 +10°C° 0 mm 1 m/s 720 mmHg 82%
    20:00 +9°C° 0 mm 1 m/s 720 mmHg 83%
    21:00 +9°C° 0 mm 1 m/s 720 mmHg 84%
    22:00 +9°C° 0 mm 1 m/s 720 mmHg 84%
    23:00 +8°C° 0 mm 1 m/s 719 mmHg 84%

    Depois de amanhã, 22 Setembro, Domingo

    Tempo Temperatura Precipitação Vento Pressão Humidade
    00:00 +8°C° 0 mm 1 m/s 719 mmHg 85%
    01:00 +8°C° 0 mm 1 m/s 719 mmHg 85%
    02:00 +8°C° 0 mm 1 m/s 719 mmHg 84%
    03:00 +8°C° 0 mm 1 m/s 719 mmHg 84%
    04:00 +7°C° 0 mm 1 m/s 718 mmHg 83%
    05:00 +8°C° 0 mm 1 m/s 718 mmHg 80%
    06:00 +9°C° 0 mm 1 m/s 719 mmHg 77%
    07:00 +10°C° 0 mm 1 m/s 719 mmHg 74%
    08:00 +13°C° 0 mm 1 m/s 719 mmHg 66%
    09:00 +15°C° 0 mm 1 m/s 719 mmHg 58%
    10:00 +19°C° 0 mm 1 m/s 719 mmHg 51%
    11:00 +20°C° 0 mm 1 m/s 719 mmHg 49%
    12:00 +21°C° 0 mm 1 m/s 718 mmHg 47%
    13:00 +22°C° 0 mm 1 m/s 718 mmHg 45%
    14:00 +21°C° 0 mm 1 m/s 717 mmHg 50%
    15:00 +20°C° 0 mm 1 m/s 717 mmHg 55%
    16:00 +20°C° 0 mm 1 m/s 716 mmHg 59%
    17:00 +18°C° 0 mm 1 m/s 716 mmHg 66%
    18:00 +14°C° 0 mm 1 m/s 716 mmHg 72%
    19:00 +12°C° 0 mm 1 m/s 716 mmHg 78%
    20:00 +11°C° 0 mm 1 m/s 715 mmHg 78%
    21:00 +11°C° 0 mm 1 m/s 715 mmHg 78%
    22:00 +10°C° 0 mm 1 m/s 715 mmHg 78%
    23:00 +10°C° 0 mm 1 m/s 715 mmHg 76%

    23 Setembro, Segunda-feira

    Tempo Temperatura Precipitação Vento Pressão Humidade
    00:00 +10°C° 0 mm 1 m/s 715 mmHg 75%
    01:00 +10°C° 0 mm 1 m/s 714 mmHg 73%
    02:00 +10°C° 0 mm 1 m/s 714 mmHg 69%
    03:00 +11°C° 0 mm 1 m/s 714 mmHg 66%
    04:00 +11°C° 0 mm 1 m/s 714 mmHg 62%
    05:00 +12°C° 0 mm 1 m/s 713 mmHg 62%
    06:00 +12°C° 0 mm 1 m/s 713 mmHg 61%
    07:00 +13°C° 0 mm 1 m/s 713 mmHg 61%
    08:00 +13°C° 0 mm 1 m/s 713 mmHg 62%
    09:00 +14°C° 0 mm 1 m/s 713 mmHg 62%
    10:00 +14°C° 0 mm 1 m/s 714 mmHg 63%
    11:00 +15°C° 0 mm 1 m/s 713 mmHg 65%
    12:00 +15°C° 0 mm 1 m/s 713 mmHg 67%
    13:00 +15°C° 0 mm 1 m/s 713 mmHg 69%
    14:00 +15°C° 0 mm 1 m/s 713 mmHg 71%
    15:00 +15°C° 0 mm 1 m/s 713 mmHg 72%
    16:00 +15°C° 0 mm 1 m/s 712 mmHg 74%
    17:00 +14°C° 0 mm 1 m/s 712 mmHg 76%
    18:00 +14°C° 0 mm 1 m/s 712 mmHg 78%
    19:00 +13°C° 0 mm 1 m/s 712 mmHg 79%
    20:00 +13°C° 0 mm 1 m/s 712 mmHg 80%
    21:00 +12°C° 0 mm 1 m/s 712 mmHg 81%
    22:00 +12°C° 0 mm 1 m/s 712 mmHg 81%
    23:00 +12°C° 0 mm 1 m/s 712 mmHg 83%

    24 Setembro, Terça-feira

    Tempo Temperatura Precipitação Vento Pressão Humidade
    00:00 +11°C° 0 mm 1 m/s 712 mmHg 84%
    01:00 +11°C° 0 mm 1 m/s 712 mmHg 86%
    02:00 +11°C° 0 mm 1 m/s 712 mmHg 86%
    03:00 +11°C° 0 mm 1 m/s 711 mmHg 86%
    04:00 +10°C° 0 mm 0 m/s 711 mmHg 86%
    05:00 +10°C° 0 mm 0 m/s 711 mmHg 85%
    06:00 +11°C° 0 mm 0 m/s 711 mmHg 83%
    07:00 +11°C° 0 mm 0 m/s 711 mmHg 82%
    08:00 +12°C° 0 mm 0 m/s 712 mmHg 80%
    09:00 +12°C° 0 mm 0 m/s 712 mmHg 77%
    10:00 +14°C° 0 mm 1 m/s 712 mmHg 75%
    11:00 +14°C° 0 mm 1 m/s 712 mmHg 76%
    12:00 +14°C° 0 mm 1 m/s 711 mmHg 77%
    13:00 +14°C° 0 mm 1 m/s 711 mmHg 78%
    14:00 +14°C° 0 mm 1 m/s 711 mmHg 80%
    15:00 +13°C° 0 mm 0 m/s 711 mmHg 82%
    16:00 +13°C° 0 mm 0 m/s 711 mmHg 83%
    17:00 +12°C° 0 mm 0 m/s 711 mmHg 86%
    18:00 +11°C° 0 mm 0 m/s 711 mmHg 88%
    19:00 +10°C° 0 mm 0 m/s 712 mmHg 91%
    20:00 +10°C° 0 mm 0 m/s 712 mmHg 91%
    21:00 +9°C° 0 mm 0 m/s 712 mmHg 92%
    22:00 +9°C° 0 mm 0 m/s 712 mmHg 92%
    23:00 +9°C° 0 mm 0 m/s 712 mmHg 93%

    25 Setembro, Quarta-feira

    Tempo Temperatura Precipitação Vento Pressão Humidade
    00:00 +9°C° 0 mm 0 m/s 712 mmHg 93%
    01:00 +8°C° 0 mm 0 m/s 711 mmHg 93%
    02:00 +8°C° 0 mm 0 m/s 711 mmHg 93%
    03:00 +8°C° 0 mm 0 m/s 711 mmHg 93%
    04:00 +8°C° 0 mm 0 m/s 711 mmHg 94%
    05:00 +9°C° 0 mm 0 m/s 711 mmHg 91%
    06:00 +10°C° 0 mm 0 m/s 711 mmHg 89%
    07:00 +10°C° 0 mm 0 m/s 711 mmHg 87%
    08:00 +12°C° 0 mm 0 m/s 712 mmHg 80%
    09:00 +15°C° 0 mm 1 m/s 712 mmHg 73%
    10:00 +18°C° 0 mm 1 m/s 712 mmHg 66%
    11:00 +19°C° 0 mm 1 m/s 712 mmHg 64%
    12:00 +19°C° 0 mm 1 m/s 712 mmHg 62%
    13:00 +20°C° 0 mm 1 m/s 712 mmHg 61%
    14:00 +19°C° 0.2 mm 1 m/s 712 mmHg 66%
    15:00 +19°C° 0.2 mm 1 m/s 711 mmHg 72%
    16:00 +16°C° 0.2 mm 0 m/s 711 mmHg 78%
    17:00 +15°C° 0.1 mm 0 m/s 711 mmHg 82%
    18:00 +15°C° 0.1 mm 1 m/s 711 mmHg 86%
    19:00 +13°C° 0.1 mm 1 m/s 711 mmHg 90%
    20:00 +13°C° 0.1 mm 1 m/s 711 mmHg 89%
    21:00 +14°C° 0.1 mm 1 m/s 711 mmHg 89%
    22:00 +14°C° 0.1 mm 1 m/s 712 mmHg 89%
    23:00 +13°C° 0.1 mm 1 m/s 712 mmHg 90%
    Mostrar mais